| time (UTC) | temp C | wind direction | speed KPH | gust KPH | rain 1hr cm | rain 24hr cm | rain mn cm | humidity % | barometer mb |
| 20260506073050 | 20 | 211 | 20.9 | 32.2 | 0.00 | 0.00 | 0.00 | 48 | 1009.6 |
| 20260506071550 | 19 | 262 | 17.7 | 29.0 | 0.00 | 0.00 | 0.00 | 51 | 1009.5 |
| 20260506061546 | 18 | 234 | 14.5 | 30.6 | 0.00 | 0.00 | 0.00 | 54 | 1009.5 |
| 20260506044553 | 13 | 208 | 8.0 | 12.9 | 0.00 | 0.00 | 0.00 | 68 | 1009.4 |
| 20260506043049 | 13 | 200 | 4.8 | 11.3 | 0.00 | 0.00 | 0.00 | 67 | 1009.3 |
| 20260506041548 | 13 | 209 | 9.7 | 19.3 | 0.00 | 0.00 | 0.00 | 65 | 1009.4 |
| 20260506034604 | 13 | 190 | 12.9 | 17.7 | 0.00 | 0.00 | 0.00 | 64 | 1009.0 |
| 20260506033049 | 13 | 207 | 8.0 | 11.3 | 0.00 | 0.00 | 0.00 | 62 | 1008.9 |
| 20260506031601 | 14 | 219 | 11.3 | 22.5 | 0.00 | 0.00 | 0.00 | 59 | 1009.1 |
| 20260506030051 | 16 | 222 | 16.1 | 35.4 | 0.00 | 0.00 | 0.00 | 55 | 1009.2 |
| 20260506024554 | 15 | 229 | 25.7 | 43.5 | 0.00 | 0.00 | 0.00 | 55 | 1009.3 |
| 20260506023050 | 15 | 234 | 17.7 | 40.2 | 0.00 | 0.00 | 0.00 | 55 | 1009.3 |
| 20260506021544 | 14 | 213 | 16.1 | 24.1 | 0.00 | 0.00 | 0.00 | 59 | 1009.4 |
| 20260506020055 | 13 | 226 | 17.7 | 29.0 | 0.00 | 0.00 | 0.00 | 60 | 1009.4 |
| 20260506014553 | 13 | 234 | 17.7 | 24.1 | 0.00 | 0.00 | 0.00 | 62 | 1009.5 |
| 20260506013052 | 12 | 233 | 17.7 | 24.1 | 0.00 | 0.00 | 0.00 | 64 | 1009.5 |
| 20260506011551 | 12 | 230 | 11.3 | 20.9 | 0.00 | 0.00 | 0.00 | 65 | 1009.6 |
| 20260506010056 | 12 | 224 | 12.9 | 22.5 | 0.00 | 0.00 | 0.00 | 65 | 1009.8 |
| 20260506004600 | 12 | 221 | 16.1 | 22.5 | 0.00 | 0.00 | 0.00 | 65 | 1009.8 |
| 20260506003052 | 11 | 205 | 14.5 | 19.3 | 0.00 | 0.00 | 0.00 | 66 | 1010.0 |
| 20260506001554 | 12 | 225 | 12.9 | 19.3 | 0.00 | 0.00 | 0.00 | 66 | 1010.0 |
| 20260506000052 | 11 | 236 | 11.3 | 19.3 | 0.00 | 0.00 | 0.00 | 67 | 1010.1 |
| 20260505234556 | 12 | 248 | 12.9 | 22.5 | 0.00 | 0.00 | 0.00 | 65 | 1010.2 |
| 20260505233043 | 12 | 252 | 16.1 | 27.4 | 0.00 | 0.00 | 0.00 | 64 | 1010.2 |
| 20260505231554 | 12 | 241 | 19.3 | 24.1 | 0.00 | 0.00 | 0.00 | 64 | 1010.1 |
| 20260505230052 | 11 | 255 | 16.1 | 20.9 | 0.00 | 0.00 | 0.00 | 66 | 1010.2 |
| 20260505224552 | 11 | 252 | 16.1 | 20.9 | 0.00 | 0.00 | 0.00 | 67 | 1010.3 |
| 20260505223052 | 10 | 252 | 16.1 | 19.3 | 0.00 | 0.00 | 0.00 | 67 | 1010.3 |
| 20260505221553 | 10 | 256 | 14.5 | 17.7 | 0.00 | 0.00 | 0.00 | 67 | 1010.4 |
| 20260505220046 | 10 | 241 | 11.3 | 16.1 | 0.00 | 0.00 | 0.00 | 67 | 1010.5 |
| 20260505214558 | 10 | 252 | 12.9 | 16.1 | 0.00 | 0.00 | 0.00 | 67 | 1010.6 |
| 20260505213046 | 10 | 254 | 9.7 | 14.5 | 0.00 | 0.00 | 0.00 | 64 | 1010.7 |
| 20260505211612 | 11 | 252 | 9.7 | 12.9 | 0.00 | 0.00 | 0.00 | 62 | 1010.7 |
| 20260505210054 | 11 | 243 | 9.7 | 12.9 | 0.00 | 0.00 | 0.00 | 60 | 1010.8 |
| 20260505204553 | 12 | 250 | 12.9 | 17.7 | 0.00 | 0.00 | 0.00 | 58 | 1010.8 |
| 20260505203059 | 13 | 259 | 17.7 | 20.9 | 0.00 | 0.00 | 0.00 | 56 | 1010.7 |
| 20260505201556 | 12 | 254 | 11.3 | 14.5 | 0.00 | 0.00 | 0.00 | 59 | 1010.6 |
| 20260505200050 | 13 | 260 | 9.7 | 17.7 | 0.00 | 0.00 | 0.00 | 55 | 1010.6 |
| 20260505194606 | 15 | 250 | 12.9 | 16.1 | 0.00 | 0.00 | 0.00 | 50 | 1010.4 |
| 20260505193045 | 16 | 229 | 11.3 | 20.9 | 0.00 | 0.00 | 0.00 | 47 | 1010.5 |
| 20260505191543 | 16 | 236 | 14.5 | 20.9 | 0.00 | 0.00 | 0.00 | 48 | 1010.5 |
| 20260505190052 | 16 | 225 | 11.3 | 16.1 | 0.00 | 0.00 | 0.00 | 48 | 1010.6 |
| 20260505184547 | 16 | 219 | 11.3 | 17.7 | 0.00 | 0.00 | 0.00 | 47 | 1010.5 |
| 20260505183046 | 17 | 222 | 11.3 | 16.1 | 0.00 | 0.00 | 0.00 | 46 | 1010.4 |
| 20260505181555 | 17 | 224 | 11.3 | 16.1 | 0.00 | 0.00 | 0.00 | 44 | 1010.5 |
| 20260505180050 | 18 | 211 | 12.9 | 19.3 | 0.00 | 0.00 | 0.00 | 42 | 1010.3 |
| 20260505174554 | 18 | 229 | 14.5 | 27.4 | 0.00 | 0.00 | 0.00 | 39 | 1010.4 |
| 20260505173051 | 19 | 218 | 17.7 | 29.0 | 0.00 | 0.00 | 0.00 | 36 | 1010.4 |
| 20260505171548 | 20 | 223 | 20.9 | 30.6 | 0.00 | 0.00 | 0.00 | 35 | 1010.6 |
| 20260505170048 | 20 | 233 | 16.1 | 27.4 | 0.00 | 0.00 | 0.00 | 36 | 1010.5 |
| 20260505164605 | 20 | 221 | 12.9 | 32.2 | 0.00 | 0.00 | 0.00 | 35 | 1010.7 |
| 20260505163101 | 20 | 221 | 20.9 | 40.2 | 0.00 | 0.00 | 0.00 | 36 | 1010.7 |
| 20260505161607 | 20 | 227 | 17.7 | 30.6 | 0.00 | 0.00 | 0.00 | 38 | 1010.8 |
| 20260505153051 | 21 | 223 | 19.3 | 35.4 | 0.00 | 0.00 | 0.00 | 33 | 1011.0 |
| 20260505151547 | 22 | 200 | 20.9 | 40.2 | 0.00 | 0.00 | 0.00 | 34 | 1011.0 |
| 20260505130110 | 23 | 217 | 30.6 | 41.8 | 0.00 | 0.00 | 0.00 | 31 | 1011.8 |
| 20260505124602 | 23 | 229 | 24.1 | 46.7 | 0.00 | 0.00 | 0.00 | 31 | 1011.9 |
| 20260505123054 | 23 | 229 | 33.8 | 45.1 | 0.00 | 0.00 | 0.00 | 31 | 1011.9 |
| 20260505121552 | 23 | 249 | 25.7 | 43.5 | 0.00 | 0.00 | 0.00 | 30 | 1012.0 |
| 20260505120111 | 22 | 229 | 24.1 | 43.5 | 0.00 | 0.00 | 0.00 | 31 | 1012.1 |
| 20260505114549 | 22 | 224 | 27.4 | 48.3 | 0.00 | 0.00 | 0.00 | 31 | 1012.5 |
| 20260505113059 | 22 | 240 | 30.6 | 46.7 | 0.00 | 0.00 | 0.00 | 31 | 1012.4 |
| 20260505111544 | 21 | 215 | 24.1 | 38.6 | 0.00 | 0.00 | 0.00 | 32 | 1012.7 |
| 20260505101552 | 22 | 248 | 33.8 | 45.1 | 0.00 | 0.00 | 0.00 | 31 | 1013.2 |
| 20260505100051 | 22 | 244 | 32.2 | 51.5 | 0.00 | 0.00 | 0.00 | 31 | 1013.5 |
| 20260505094546 | 23 | 215 | 27.4 | 40.2 | 0.00 | 0.00 | 0.00 | 30 | 1013.5 |
| 20260505093050 | 22 | 192 | 25.7 | 41.8 | 0.00 | 0.00 | 0.00 | 33 | 1013.4 |
| 20260505091554 | 22 | 227 | 19.3 | 35.4 | 0.00 | 0.00 | 0.00 | 35 | 1013.6 |
| 20260505090059 | 21 | 240 | 20.9 | 35.4 | 0.00 | 0.00 | 0.00 | 36 | 1013.5 |
| 20260505084551 | 21 | 221 | 22.5 | 37.0 | 0.00 | 0.00 | 0.00 | 34 | 1013.6 |
| 20260505083046 | 21 | 246 | 22.5 | 41.8 | 0.00 | 0.00 | 0.00 | 37 | 1013.6 |
| 20260505081603 | 21 | 233 | 25.7 | 37.0 | 0.00 | 0.00 | 0.00 | 36 | 1013.8 |
| 20260505080050 | 22 | 182 | 16.1 | 46.7 | 0.00 | 0.00 | 0.00 | 36 | 1013.8 |